Location: Unspecified
(38.9820°N, 94.4650°W)
Time: 12:50:43
(UTC-06:00)

CZ-3 Stage 3 - Visible Passes

Search period start: 08 February 2016 00:00
Search period end: 18 February 2016 00:00
Orbit: 369 x 34841 km, 30.4° (Epoch: 06 February)

Date Brightness Start Highest point End Pass type
(mag) Time Alt. Az. Time Alt. Az. Time Alt. Az.
08 Feb 8.9 20:59:01 10° WSW 21:42:36 20° SW 00:16:12 10° SW visible
09 Feb 7.7 17:09:22 10° WSW 17:22:54 39° SSW 00:35:04 10° S visible
11 Feb 9.0 20:52:51 10° WSW 21:36:05 19° SW 23:59:40 10° SW visible
12 Feb 7.8 17:01:48 10° WSW 17:15:28 37° SSW 00:25:44 10° S visible
14 Feb 9.1 20:46:48 10° WSW 21:29:31 18° SW 23:42:53 10° SW visible
15 Feb 7.8 16:54:08 10° WSW 17:07:56 36° SSW 00:16:51 10° S visible
17 Feb 9.2 20:40:53 10° WSW 21:22:57 17° SW 23:25:48 10° SW visible
